カタログに戻る

SL-14 DEB

運用中PO
NORAD 45652·DEBRIS·🇷🇺 Russia

打ち上げ Aug 15, 1991 から Plesetsk Cosmodrome

Loading…

次のパス (今後24時間)

TLE

最新Source: Space-Track

元期: Sep 12, 2026, 04:12 UTC

1 45652U 91056CW  26255.17558568  .00000349  00000-0  77832-3 0  9994
2 45652  82.5504  58.0292 0030818 164.2459 195.9634 13.24575786310363

AllMySatでSL-14 DEBをリアルタイム追跡

Download on the App Store